sat.trackr.live / text

‹ back to catalog

STARLINK-32642

NORAD 62211 · 2024-229V

PAYLOAD ACTIVE UNKNOWN

§ Identity

Operator
Country
US
Launch date
2024-12-04
Launch site
AFETR
Launch vehicle
Mass (kg)
RCS (m²)

Purposes: comms

External: N2YO · Heavens-Above · Gunter

§ Orbital elements

Epoch: 2026-09-21T07:45:57.227328Z

Period
94.27 min
Inclination
42.9989°
Eccentricity
0.0001277
Mean motion
15.27587268 rev/d
Perigee alt
482.2 km
Apogee alt
483.9 km
Semi-major
6,861.2 km
B*
2.9003e-4
RAAN
245.6508°
Arg perigee
256.0244°
Mean anomaly
104.0466°
Rev number
10,048

§ Raw data

STARLINK-326421 62211U 24229V   26264.32357902  .00007729  00000+0  29003-3 0  99932 62211  42.9989 245.6508 0001277 256.0244 104.0466 15.27587268100480

JSON: /api/v1/satellites/62211 · /tle

For live sub-satellite position, see the globe view (requires WebGL).

§ Visibility from observer

Set your observer location to see the next 7 days of passes ≥ 10°. The values pass through the URL so the page stays shareable.

No JS? Fill the form by hand. The geolocation button needs JavaScript.